Weather observations for the past three days for
Aberdeen, Aberdeen Regional Airport
Metric (Imperial)
Date Time (cdt) Wind (kph) Vis. (km) Weather Sky Cond. Temperature (ºC) Relative Humidity Wind Chill (°C) Heat Index (°C) Pressure Precipitation (cm)
Air Dwpt 6 hour altimeter (cm) sea level (mb) 1 hr 3 hr 6 hr
Max. Min.
21 12:53 SE 11 16.09 Overcast FEW025 OVC031 23.9 17.8 24.4 16.7 69% 25 76.4 1018.2
21 11:53 SE 9 16.09 Overcast BKN022 OVC029 23.3 17.8 71% 76.48 1019.1
21 10:53 E 11 16.09 Mostly Cloudy BKN018 BKN110 22.2 17.2 73% 76.48 1019.1
21 09:53 E 9 16.09 Overcast OVC013 20.6 16.7 78% 76.53 1019.9
21 08:53 E 7 16.09 Overcast OVC010 18.9 16.1 84% 76.58 1020.6
21 07:53 NE 9 16.09 Mostly Cloudy BKN100 18.3 16.1 87% 76.56 1020.2
21 06:53 NE 6 16.09 Overcast BKN022 OVC031 16.7 15.6 17.2 16.7 93% 76.56 1020.3 0.03
21 05:53 NE 11 16.09 Overcast OVC047 16.7 15 90% 76.53 1020.2 0.03
21 04:53 NE 11 9.66 Light Rain Fog/Mist BKN022 OVC043 16.7 15 90% 76.61 1020.9
21 03:53 NE 11 16.09 Overcast FEW011 OVC026 17.2 15.6 90% 76.61 1020.9
21 02:53 NE 13 16.09 Overcast FEW024 OVC055 17.2 15 87% 76.61 1020.9
21 01:53 E 13 16.09 Overcast OVC065 17.2 15 87% 76.63 1021.4
21 00:53 E 15 16.09 Overcast BKN038 OVC110 17.2 15 18.3 16.7 87% 76.71 1022.3 0.03
20 23:53 E 17 16.09 Overcast OVC022 17.2 15 87% 76.71 1022.4
20 22:53 E 19 16.09 Overcast OVC022 17.2 15 87% 76.71 1022.4 0.03
20 21:53 E 17 11.27 Overcast OVC028 17.2 15 87% 76.71 1022.4
20 20:53 E 17 16.09 Overcast OVC036 18.3 14.4 78% 76.68 1022.3
20 19:53 E 19 16.09 Light Rain BKN028 OVC043 18.3 14.4 78% 76.71 1022.3
20 18:53 E 11 16.09 Light Rain SCT015 BKN028 OVC120 18.3 15 19.4 17.2 81% 76.78 1023.5 0.1
20 17:53 E 13 16.09 Mostly Cloudy FEW039 BKN120 17.8 15 84% 76.76 1023.1 0.1
20 16:53 E 9 16.09 Thunderstorm Light Rain BKN021 OVC100 18.3 13.9 76% 76.89 1025.0
20 15:53 SE 13 16.09 Overcast OVC023 18.9 13.3 70% 76.91 1025.3
20 14:53 SE 15 16.09 Overcast SCT026 BKN032 OVC050 18.9 12.8 68% 76.91 1025.0
20 13:53 SE 22 G 35 16.09 Overcast FEW021 BKN028 OVC060 18.9 12.8 68% 76.91 1025.3
20 12:53 SE 22 16.09 Overcast OVC032 17.2 12.2 17.2 15 73% 76.99 1026.5
20 11:53 S 22 G 37 16.09 Overcast FEW021 BKN046 OVC055 16.7 12.2 75% 77.01 1026.6
20 10:53 SE 19 16.09 Overcast FEW019 SCT024 OVC042 16.1 12.8 81% 77.04 1026.9
20 09:53 S 17 16.09 Overcast OVC046 16.7 11.7 73% 77.04 1026.9
20 08:53 SE 15 16.09 Overcast OVC055 16.7 12.8 78% 76.99 1026.2
20 07:53 E 11 16.09 Overcast OVC060 15.6 11.7 78% 76.96 1025.8
20 06:53 SE 11 16.09 Overcast SCT065 OVC085 15 12.2 16.1 13.9 83% 76.96 1025.9 0.13
20 05:53 E 7 16.09 Overcast BKN065 OVC090 14.4 12.2 87% 76.96 1026.0
20 04:53 SE 11 16.09 Overcast FEW042 BKN075 OVC100 14.4 12.2 87% 76.99 1026.2 0.03
20 03:53 S 9 16.09 Overcast FEW033 BKN070 OVC120 15 12.2 83% 77.01 1026.3 0.1
20 02:53 SE 13 16.09 Mostly Cloudy FEW075 SCT095 BKN120 15.6 13.3 86% 76.99 1026.1
20 01:53 Calm 16.09 Mostly Cloudy FEW070 SCT090 BKN110 16.1 13.3 84% 76.96 1025.9 0.1
20 00:53 SE 7 16.09 Light Rain BKN090 OVC110 15.6 13.9 21.1 15.6 90% 76.99 1026.2 0.03 0.28
19 23:53 S 15 14.48 Light Rain OVC100 16.1 13.3 84% 76.99 1026.4 0.25
19 22:53 E 11 16.09 Light Rain FEW050 SCT085 OVC110 18.3 11.7 66% 76.91 1025.2
19 21:53 NE 7 16.09 Partly Cloudy SCT110 18.3 10.6 61% 76.91 1025.2
19 20:53 E 9 16.09 Mostly Cloudy BKN110 19.4 10 55% 76.86 1024.7
19 19:53 E 13 16.09 Fair CLR 20.6 9.4 49% 76.89 1024.8
19 18:53 E 11 16.09 Fair CLR 20.6 9.4 22.2 19.4 49% 76.86 1024.8
19 17:53 E 15 16.09 Fair CLR 21.1 7.8 42% 76.89 1025.1
19 16:53 SE 13 16.09 Fair CLR 20.6 8.9 47% 76.91 1025.5
19 15:53 Vrbl 11 16.09 Fair CLR 21.7 7.2 39% 76.94 1025.6
19 14:53 E 11 16.09 A Few Clouds FEW050 21.1 7.2 41% 76.94 1025.7
19 13:53 Calm 16.09 Fair CLR 21.1 7.2 41% 76.99 1026.4
19 12:53 Calm 16.09 Fair CLR 20.6 7.2 20.6 11.1 42% 76.99 1026.3
19 11:53 Vrbl 9 16.09 Mostly Cloudy BKN041 19.4 7.8 47% 76.99 1026.4
19 10:53 N 9 16.09 Fair CLR 18.3 7.8 51% 76.96 1026.2
19 09:53 N 13 16.09 Fair CLR 16.7 7.2 54% 76.91 1025.6
19 08:53 N 15 16.09 Fair CLR 15 8.9 67% 76.89 1024.9
19 07:53 NW 13 16.09 Fair CLR 13.9 9.4 74% 76.84 1024.4
19 06:53 NW 6 16.09 Fair CLR 11.1 8.9 12.2 9.4 86% 76.76 1023.4
19 05:53 N 7 16.09 Fair CLR 10 8.3 89% 9 76.66 1022.0
19 04:53 NW 19 16.09 Fair CLR 11.1 9.4 89% 76.58 1020.8
19 03:53 NW 9 16.09 Fair CLR 10 8.3 89% 9 76.48 1019.7
19 02:53 NW 9 16.09 Overcast BKN019 OVC024 11.7 10 89% 76.43 1018.8
19 01:53 NW 13 16.09 A Few Clouds FEW017 9.4 8.9 97% 8 76.33 1017.7
19 00:53 W 6 16.09 Fair CLR 11.1 10 17.8 11.1 93% 76.28 1016.9
18 23:53 NW 9 16.09 Fair CLR 11.7 10 89% 76.2 1015.9
18 22:53 NW 13 16.09 Fair CLR 12.8 10.6 87% 76.12 1014.8
18 21:53 N 11 16.09 Fair CLR 13.9 11.1 83% 76.02 1013.4
18 20:53 NW 22 16.09 Partly Cloudy SCT024 16.7 11.7 73% 75.97 1012.6
18 19:53 NW 20 G 35 16.09 Overcast OVC026 17.2 11.7 70% 75.87 1011.1
18 18:53 NW 24 G 35 16.09 Overcast OVC027 17.2 11.7 19.4 17.2 70% 75.74 1009.3
18 17:53 NW 31 G 46 16.09 Overcast OVC022 17.2 12.2 73% 75.64 1008.3
18 16:53 NW 31 G 50 16.09 Overcast OVC021 18.3 12.2 68% 75.59 1007.3
18 15:53 NW 28 G 46 16.09 Overcast OVC019 18.3 13.3 73% 75.49 1006.0
18 14:53 N 28 16.09 Overcast OVC017 19.4 14.4 73% 75.39 1004.1
18 13:53 N 28 16.09 Overcast OVC010 18.3 15 81% 75.34 1003.7
Date Time (cdt) Wind (kph) Vis. (km) Weather Sky Cond. Air Dwpt Max. Min. Relative Humidity Wind Chill (°C) Heat Index (°C) altimeter (cm) sea level (mb) 1 hr 3 hr 6 hr
6 hour
Temperature (ºC) Pressure Precipitation (cm)